Location: Unspecified
(0.0000°N, 0.0000°E)
Time: 03:53:39
(UTC+00:00)

N. Korean satellite - Pass Details

Date: 11 May 2021
Orbit: 450 x 501 km, 97.2° (Epoch: 16 May)

Event Time Altitude Azimuth Distance (km) Brightness Sun altitude
Rises 04:10:05 0° 45° (NE) 2,442 11.2 -25.2°
Reaches altitude 10° 04:13:10 10° 77° (ENE) 1,579 10.2 -24.5°
Maximum altitude 04:14:32 12° 102° (ESE) 1,462 9.7 -24.1°
Drops below altitude 10° 04:15:55 10° 126° (SE) 1,587 9.6 -23.8°
Sets 04:19:02 0° 158° (SSE) 2,473 10.2 -23.1°
